Hourly Data Report for October 18, 2018

CARBERRY CS
MANITOBA
Current Station Operator: ECCC - MSC

49°54'20.900" N
99°21'26.800" W
383.50 m
5010547
71170
WZE

Download Data

Hourly Data (October 2018)
Hourly Data Report for October 18, 2018
TIME
LST
Temp Definition
°C
Dew Point Definition
°C
Rel Hum Definition
%
Precip. Amount Definition
mm

Wind Dir Definition
10's deg

Wind Spd Definition
km/h
Visibility Definition
km
Stn Press Definition
kPa
Hmdx Definition


Wind Chill Definition


Weather Definition


00:00 4.5 0.9 77 0.0 20 9   97.01     LegendNANA
01:00 8.3 1.1 60 0.0 23 18   96.98     LegendNANA
02:00 7.5 0.5 61 0.0 23 17   96.98     LegendNANA
03:00 7.0 0.3 62 0.0 23 14   96.98     LegendNANA
04:00 6.5 0.0 63 0.0 23 15   96.94     LegendNANA
05:00 5.9 -0.2 65 0.0 22 14   96.94     LegendNANA
06:00 5.8 -0.4 64 0.0 23 15   96.92     LegendNANA
07:00 6.0 -0.6 62 0.0 24 18   96.88     LegendNANA
08:00 6.9 -0.5 59 0.0 22 11   96.86     LegendNANA
09:00 8.7 0.5 57 0.0 21 11   96.79     LegendNANA
10:00 12.8 1.5 46 0.0 22 17   96.70     LegendNANA
11:00 17.3 3.3 39 0.0 23 15   96.63     LegendNANA
12:00 19.8 3.2 33 0.0 22 19   96.52     LegendNANA
13:00 21.1 2.6 29 0.0 23 26   96.41     LegendNANA
14:00 22.3 3.4 29 0.0 23 25   96.29     LegendNANA
15:00 22.6 4.4 30 0.0 23 27   96.21     LegendNANA
16:00 23.0 2.6 26 0.0 23 23   96.15     LegendNANA
17:00 21.7 2.9 29 0.0 24 16   96.14     LegendNANA
18:00 19.2 2.4 33 0.0 23 13   96.15     LegendNANA
19:00 13.8 2.2 45 0.0 26 14   96.15     LegendNANA
20:00 13.8 1.8 44 0.0 27 16   96.12     LegendNANA
21:00 9.8 1.0 54 0.0 29 6   96.12     LegendNANA
22:00 10.4 1.5 54 0.0 30 16   96.11     LegendNANA
23:00 10.1 1.4 55 0.0 29 12   96.15     LegendNANA

Notes on Data Quality.

Legend

  • E = Estimated
  • M = Missing
  • NA = Not Available*
  • [empty] = Indicates an unobserved value
Date modified: